Temperature
22 20 19 20 20 20 19 20 20 20 20 20 19 19 20 21 21 22 22 23 24 25 27 27 26 25 25 24 23 23 22 21 21 20 19 19 19 18 18 18 18 18 18 18
20 20 21 21 21 21 20 19 19 19 19 20 18 18 19 20 21 21 22 23 23 25 25 26 26 25 25 24 23 23 22 21 21 20 20 19 19 18 18 18 18 18 18 18
22 22 23 22 21 20 20 19 19 19 18 18 17 17 18 19 21 21 22 23 23 24 25 25 25 25 24 24 23 23 22 21 20 20 19 19 18 18 18 18 18 18 18 18
22 23 23 22 21 20 19 19 19 18 17 16 17 15 16 17 18 20 21 22 23 24 24 23 23 24 24 23 23 22 22 21 20 20 19 19 19 18 18 18 18 17 17 17
21 22 21 21 21 21 19 18 18 17 16 15 15 15 16 17 18 19 20 21 22 23 23 23 22 22 22 22 22 22 22 21 21 20 19 18 18 18 18 17 17 17 17 17
21 22 22 21 21 21 19 17 16 15 14 15 16 15 16 16 18 19 20 21 22 23 23 23 22 21 21 20 21 21 21 21 20 20 19 18 18 18 17 17 17 17 17 17
18 19 21 21 20 19 18 16 15 15 15 15 16 16 15 16 17 18 19 19 21 22 22 21 21 20 19 19 20 21 20 21 20 20 19 18 17 17 17 17 17 17 17 17
16 17 19 19 19 18 17 16 15 15 15 15 17 16 15 16 16 16 16 17 18 18 19 20 20 19 19 18 19 20 20 20 20 19 18 18 17 17 17 17 17 17 17 16
16 16 18 19 18 17 16 15 15 14 15 15 16 16 16 15 15 15 16 15 15 16 17 18 18 18 19 19 19 19 19 19 20 19 18 18 18 18 17 17 17 17 16 16
16 15 16 17 16 16 14 14 13 13 14 15 15 14 13 13 14 14 15 15 15 16 16 17 17 17 18 19 19 19 18 19 19 19 18 18 18 18 18 17 17 17 16 16
15 14 13 14 13 12 12 12 12 12 13 14 13 13 13 13 13 13 14 15 15 16 17 17 17 17 18 19 19 19 18 19 19 19 19 18 18 18 18 17 17 17 17 16
14 11 11 13 13 14 12 12 11 12 13 13 13 13 14 13 13 13 14 14 15 16 17 18 18 18 19 19 19 20 20 20 20 19 19 18 18 18 18 18 18 17 17 16
14 12 11 11 11 13 12 12 12 12 11 13 13 13 13 13 12 12 12 13 14 16 17 18 19 19 20 20 20 20 20 20 20 19 19 18 18 18 18 18 18 17 17 16
14 11 11 11 11 11 11 11 13 12 12 12 12 12 12 12 12 12 12 12 14 17 18 18 19 20 20 21 20 20 19 19 19 19 19 18 18 18 18 17 17 17 17 16
12 12 13 12 12 11 11 11 12 12 12 12 12 12 11 11 11 11 12 13 14 16 17 18 18 19 19 20 20 20 19 19 18 18 18 18 18 17 17 17 17 16 16 16
11 12 12 12 12 12 11 10 11 11 11 11 11 11 11 10 10 11 12 13 13 13 14 15 17 18 19 19 19 19 18 18 18 18 18 17 17 17 17 17 16 16 16 16
11 11 11 10 12 12 10 9 9 10 10 10 10 10 10 10 10 10 11 12 13 13 14 14 15 16 16 16 17 18 18 18 17 17 17 17 17 17 17 16 16 16 16 16
11 10 9 9 11 10 10 10 10 10 10 9 10 10 10 10 10 11 11 11 13 14 14 15 15 15 15 15 15 15 15 15 15 15 15 15 15 16 15 15 15 15 15 15
10 10 9 9 9 10 10 11 10 9 10 10 9 10 10 9 11 13 13 12 13 14 15 15 15 15 15 15 15 15 14 14 14 14 14 14 14 14 14 14 14 14 14 14
11 9 9 9 10 9 9 10 10 10 10 10 9 9 9 9 10 11 12 13 14 15 15 14 14 15 15 14 14 14 13 13 13 12 12 12 12 13 13 13 13 13 12 12
9 8 8 8 9 9 10 10 10 9 9 9 10 9 9 9 9 10 12 14 14 15 15 14 14 14 14 14 14 13 13 12 12 12 12 12 12 12 12 11 11 11 11 11
9 9 8 8 8 8 10 10 9 9 10 10 10 10 10 10 11 12 13 15 15 15 15 15 14 14 14 14 14 13 13 12 12 12 12 11 12 12 11 11 11 11 11 11
9 9 8 9 9 10 11 10 10 10 10 11 11 11 11 11 12 13 14 15 15 15 15 15 15 15 14 14 14 14 13 13 12 12 12 12 12 12 12 11 11 11 11 11
10 11 9 9 10 11 11 11 11 11 11 11 12 12 12 12 13 14 14 15 15 16 16 15 15 15 15 14 14 14 14 13 13 12 12 12 12 12 11 11 11 11 11 11
10 11 9 9 10 11 12 12 12 12 12 12 12 12 12 12 13 14 14 15 15 16 16 16 15 15 15 15 14 14 14 13 13 13 12 12 12 11 11 11 11 11 11 10
11 10 9 9 11 11 12 12 12 12 12 12 12 12 12 12 13 14 14 15 15 15 16 16 16 16 15 15 15 14 14 14 13 13 12 12 11 11 11 11 11 11 10 10
Wind_Speed
2 3 1 4 5 6 4 4 5 4 3 3 5 8 11 8 7 5 4 7 9 11 8 13 20 21 18 15 15 14 14 14 11 7 6 5 5 5 5 5 6 7 7 5
3 2 6 6 5 4 3 2 4 2 1 3 5 9 11 10 7 5 3 8 11 10 6 9 15 18 18 17 15 14 14 12 11 9 6 4 4 4 4 4 4 6 6 5
2 6 5 5 4 4 4 4 5 4 3 4 5 8 9 8 5 5 3 4 10 9 10 11 14 14 15 15 15 13 11 11 9 9 6 5 4 4 2 2 3 4 6 7
4 4 3 4 5 6 6 5 5 3 1 4 2 6 9 6 6 7 6 5 6 3 6 6 8 10 13 12 11 12 10 10 9 9 9 8 5 4 5 4 4 4 5 5
5 6 5 4 4 2 4 3 5 3 2 3 2 4 9 7 6 6 7 7 5 3 6 6 6 7 7 7 9 10 9 8 8 8 9 8 5 4 3 3 5 5 4 4
5 5 3 3 4 5 6 6 5 4 3 3 5 5 5 9 11 10 8 6 6 6 6 8 7 9 8 5 7 8 7 5 6 7 7 8 8 7 5 4 5 4 2 2
8 8 7 8 10 6 4 4 4 5 2 5 4 2 4 14 17 15 15 13 7 2 7 11 12 10 8 6 5 4 5 5 6 7 7 7 7 7 7 6 6 5 3 3
7 7 7 8 6 6 5 6 6 5 4 4 3 1 3 13 18 18 18 16 14 12 9 7 10 12 10 6 3 5 7 6 6 6 6 5 6 5 4 5 5 6 5 5
6 6 9 8 7 6 6 2 4 5 4 3 4 2 5 18 22 22 20 17 14 12 12 11 7 7 12 13 12 10 8 6 6 5 4 4 5 5 4 4 5 4 4 4
4 6 6 7 9 8 4 2 3 3 4 4 1 4 8 16 18 20 18 15 11 8 10 11 9 5 3 5 7 7 7 6 5 4 4 3 5 6 5 4 6 6 6 5
5 2 7 6 6 7 8 6 4 1 1 3 2 2 5 9 12 16 17 14 10 5 5 6 2 7 8 4 4 7 7 7 6 6 4 4 5 5 5 5 5 6 5 6
6 4 4 3 3 2 4 4 3 1 1 0 3 4 8 9 12 15 17 15 12 8 3 5 8 10 10 7 5 7 8 8 7 5 4 3 3 3 4 5 5 5 6 6
5 5 5 8 8 5 5 8 6 1 0 1 2 3 10 13 15 16 17 17 14 10 7 7 8 10 10 8 7 7 7 7 6 5 5 3 3 4 5 6 6 5 6 7
5 4 2 3 5 4 7 12 11 3 2 4 6 6 13 20 21 21 20 18 16 8 6 7 9 11 12 11 8 8 6 4 4 5 4 3 4 6 7 7 6 6 6 7
5 3 3 4 9 12 15 17 17 15 10 7 5 5 12 18 19 19 17 15 14 12 8 3 1 2 4 6 5 4 2 2 3 5 5 6 6 6 7 7 7 7 6 7
5 3 2 3 7 13 17 21 18 12 10 9 9 6 14 19 18 20 18 16 15 15 15 15 15 15 13 11 8 8 7 5 3 2 4 5 5 5 6 7 7 7 6 6
5 4 3 4 3 2 11 14 13 8 9 9 9 10 18 21 23 19 17 16 14 13 14 15 15 14 14 13 13 13 11 10 10 8 6 5 2 1 2 2 2 4 4 4
3 3 3 3 5 6 2 5 6 7 6 10 11 13 15 18 18 9 12 16 13 10 11 10 10 10 9 9 9 9 8 9 9 9 9 9 9 7 6 5 5 4 3 2
6 4 4 3 4 2 3 5 6 4 3 9 12 16 17 19 12 4 14 20 11 6 6 6 6 7 8 8 8 8 9 8 8 8 8 7 7 7 7 7 6 5 4 4
8 8 6 4 3 1 3 7 4 2 1 7 9 13 15 16 11 10 18 20 12 6 6 7 7 8 8 8 8 9 9 8 8 6 6 6 6 6 6 6 5 4 4 4
6 7 7 5 3 2 4 7 3 2 5 10 8 9 10 6 6 14 19 17 10 4 5 7 7 6 4 5 7 8 7 7 5 5 6 5 5 5 5 5 5 5 5 6
2 3 3 3 3 4 4 3 2 3 5 7 8 8 9 10 12 14 15 15 11 3 3 4 5 4 3 3 5 5 5 4 4 5 6 4 5 5 5 6 6 6 6 7
3 5 4 4 4 4 2 2 4 4 5 6 6 9 9 10 11 13 13 13 8 3 1 1 2 3 4 3 1 3 4 2 3 5 4 3 4 5 5 6 6 6 6 5
3 4 4 1 1 2 4 4 5 6 7 9 10 10 9 8 11 12 11 10 8 4 2 1 1 3 4 4 2 2 2 2 4 3 1 1 2 2 4 4 4 4 5 5
7 4 3 3 2 0 3 5 6 7 9 10 9 8 8 8 9 8 9 9 8 6 4 1 2 2 4 3 2 2 1 4 4 3 1 1 2 2 2 3 4 3 3 3
6 7 7 6 7 5 5 6 6 5 6 7 7 8 9 6 8 9 9 8 8 7 5 4 5 5 4 2 4 4 2 4 5 3 2 2 2 3 2 1 1 3 1 3
Wind_Direction
208 78 255 225 176 175 180 223 256 255 231 261 267 276 284 293 297 304 352 2 331 281 243 179 174 175 173 173 174 172 168 173 167 160 159 159 171 173 184 191 191 192 195 186
48 281 229 179 169 169 194 262 273 263 260 287 282 278 274 262 248 256 323 341 325 289 235 183 167 169 172 173 175 173 170 168 166 165 159 155 157 175 187 180 183 191 185 172
222 248 208 189 199 211 228 221 233 240 319 0 325 295 278 275 254 254 262 293 299 269 199 180 165 166 170 173 174 168 158 153 152 143 126 107 95 87 109 168 195 201 193 188
328 293 221 230 243 213 242 225 179 142 63 305 320 291 286 288 295 263 242 238 268 253 170 156 148 156 164 169 155 141 138 140 143 139 142 147 150 158 182 182 192 208 200 195
304 302 299 292 285 213 208 123 115 114 130 315 255 239 290 314 301 270 242 229 227 177 139 137 133 127 114 126 131 127 123 131 139 142 145 141 136 148 153 155 180 200 201 199
290 321 27 11 3 71 98 74 63 54 76 298 236 202 310 351 329 324 314 288 229 196 167 134 115 109 104 116 116 113 125 139 137 134 135 140 147 154 153 160 177 195 197 206
342 344 5 24 12 7 45 79 12 340 327 254 253 195 29 357 359 357 348 339 331 174 151 130 118 107 101 95 93 111 149 156 150 146 149 153 158 165 177 181 184 183 188 210
12 321 352 7 2 306 288 165 175 219 238 285 318 148 73 6 8 12 15 13 23 31 39 87 122 126 119 114 135 206 190 177 165 162 169 163 161 168 188 195 188 192 196 207
354 296 327 356 16 7 340 311 190 176 212 243 305 6 10 7 6 1 6 15 24 32 38 38 59 125 150 166 192 205 189 183 182 183 191 206 192 179 184 199 192 187 186 180
7 297 317 5 21 18 357 333 53 135 197 201 324 35 1 355 350 344 347 354 359 26 54 45 21 346 265 188 171 168 179 189 192 192 196 193 172 163 163 164 166 169 176 167
55 12 334 16 22 343 357 15 20 107 203 155 150 61 6 340 338 331 330 335 335 344 68 95 64 286 270 251 190 177 184 185 183 177 165 144 140 151 163 171 174 175 179 178
3 77 356 332 312 9 43 9 349 43 309 133 128 97 4 348 341 331 330 333 332 317 276 194 194 237 258 254 228 204 198 194 189 170 144 152 161 167 189 204 199 189 197 201
5 59 10 343 336 359 18 347 320 235 236 30 91 63 3 -0 351 340 334 332 326 299 259 238 238 250 259 250 227 214 215 204 182 161 157 173 201 211 221 229 223 205 203 211
58 65 80 322 316 5 11 2 16 55 71 74 55 15 358 355 348 342 338 331 323 306 251 231 244 258 267 265 241 213 211 190 168 166 166 198 230 236 239 240 241 235 217 214
58 11 354 66 77 70 42 23 30 44 47 55 32 8 356 347 340 337 339 345 358 12 27 46 219 280 301 295 262 208 172 137 166 174 184 210 231 245 246 242 238 242 236 230
19 344 6 74 100 78 44 22 17 23 28 29 20 5 344 340 345 353 2 13 25 33 38 43 48 49 44 39 41 54 54 48 72 167 215 224 230 244 252 250 238 233 237 237
337 5 48 8 355 70 31 3 359 4 22 21 14 343 337 344 344 348 6 16 27 35 41 45 48 51 50 48 52 55 47 46 53 48 34 12 342 334 321 290 268 260 257 250
351 27 83 36 38 60 313 284 327 348 32 20 354 341 342 339 323 320 11 7 6 25 40 45 50 57 60 63 63 62 54 53 55 52 48 44 48 47 39 42 33 7 349 299
42 65 75 75 74 69 340 344 341 338 2 8 347 341 342 340 336 346 357 354 342 360 40 52 57 65 65 62 62 64 56 55 57 52 49 47 51 49 41 36 26 16 22 23
27 50 65 68 80 55 309 314 327 208 335 346 337 334 339 347 6 338 332 334 332 1 42 49 47 49 50 45 51 51 40 40 38 37 46 52 56 54 42 30 20 10 15 20
8 18 37 48 63 282 279 311 354 35 307 312 311 314 325 330 285 295 312 324 329 355 47 55 53 47 41 48 56 47 31 18 11 32 49 51 48 49 37 29 25 24 27 33
89 47 24 42 27 290 295 12 46 258 271 287 295 298 304 306 305 314 324 329 328 331 46 54 48 25 10 40 58 43 13 350 29 54 61 52 40 36 38 40 34 31 36 38
166 177 182 186 219 247 217 208 239 245 275 283 287 290 296 309 314 320 325 326 321 265 226 56 29 342 343 358 27 17 337 354 72 71 67 41 41 44 46 51 45 36 31 32
254 175 136 143 277 251 202 239 263 271 274 281 285 288 292 295 303 313 321 331 334 303 273 33 23 322 335 332 287 285 335 84 102 92 108 14 25 29 33 40 43 46 31 22
216 170 137 166 226 168 248 271 276 282 289 292 296 293 290 291 300 308 323 333 339 320 295 286 214 272 318 333 265 269 60 102 119 127 183 265 302 312 341 32 44 41 38 17
196 171 169 199 201 184 251 278 286 292 305 311 321 326 327 324 325 329 329 331 339 337 318 293 267 265 280 287 241 244 203 142 147 168 211 262 285 299 306 307 18 52 32 359
Height
1494 1500 1503 1500 1498 1501 1504 1505 1505 1499 1495 1495 1494 1491 1484 1479 1479 1476 1474 1473 1475 1475 1474 1475 1478 1482 1487 1491 1493 1495 1497 1500 1503 1506 1508 1510 1512 1514 1516 1518 1520 1522 1525 1526
1500 1502 1495 1493 1494 1496 1499 1504 1504 1499 1495 1494 1495 1491 1482 1476 1475 1473 1469 1468 1471 1472 1473 1473 1474 1478 1482 1485 1489 1492 1494 1498 1500 1504 1507 1509 1511 1513 1515 1516 1518 1520 1522 1524
1499 1496 1490 1491 1494 1497 1499 1502 1502 1501 1498 1495 1498 1495 1484 1473 1471 1470 1468 1468 1471 1470 1469 1470 1470 1473 1478 1482 1485 1488 1492 1496 1499 1502 1505 1507 1509 1510 1512 1514 1516 1518 1519 1521
1495 1489 1489 1492 1494 1495 1502 1494 1495 1499 1505 1509 1504 1511 1489 1478 1473 1470 1469 1469 1468 1466 1466 1468 1469 1472 1475 1479 1482 1485 1490 1494 1497 1499 1501 1503 1505 1507 1509 1512 1514 1516 1517 1518
1498 1492 1492 1494 1491 1489 1494 1492 1497 1501 1506 1511 1507 1511 1495 1481 1478 1471 1469 1468 1466 1464 1465 1468 1470 1472 1475 1480 1482 1485 1490 1494 1496 1497 1499 1500 1502 1504 1507 1509 1512 1514 1515 1515
1496 1491 1491 1492 1490 1489 1491 1497 1501 1507 1511 1518 1505 1509 1502 1493 1484 1474 1468 1466 1463 1462 1463 1465 1470 1473 1477 1481 1484 1486 1490 1493 1494 1495 1497 1498 1501 1503 1505 1507 1509 1511 1512 1512
1506 1498 1494 1493 1495 1494 1496 1506 1519 1522 1521 1514 1498 1503 1507 1498 1487 1480 1474 1467 1462 1460 1460 1463 1468 1474 1479 1483 1484 1487 1491 1492 1493 1494 1496 1498 1501 1503 1504 1505 1507 1509 1510 1510
1521 1518 1503 1499 1501 1502 1499 1503 1518 1528 1524 1512 1497 1502 1505 1496 1489 1485 1478 1473 1467 1466 1465 1466 1469 1473 1477 1481 1485 1489 1491 1491 1491 1493 1495 1498 1500 1502 1503 1504 1505 1507 1507 1507
1523 1518 1505 1502 1501 1502 1503 1504 1503 1512 1513 1514 1506 1500 1497 1491 1489 1488 1484 1479 1476 1473 1472 1472 1474 1476 1478 1482 1486 1487 1490 1490 1491 1493 1495 1498 1500 1501 1502 1503 1504 1505 1506 1505
1519 1523 1511 1506 1505 1505 1507 1505 1509 1513 1517 1517 1513 1511 1514 1504 1500 1497 1492 1488 1483 1479 1476 1476 1477 1480 1482 1484 1485 1487 1489 1490 1491 1493 1494 1496 1498 1499 1500 1502 1503 1504 1504 1504
1519 1525 1523 1517 1519 1519 1514 1513 1512 1514 1513 1517 1522 1523 1515 1512 1507 1503 1497 1492 1488 1484 1480 1479 1481 1480 1482 1483 1485 1486 1487 1489 1490 1492 1494 1495 1497 1499 1500 1501 1502 1502 1503 1503
1520 1528 1533 1525 1519 1517 1518 1518 1517 1518 1516 1513 1518 1525 1515 1513 1509 1505 1499 1493 1488 1485 1483 1482 1480 1480 1480 1481 1483 1485 1486 1488 1490 1492 1494 1496 1498 1499 1500 1500 1500 1500 1501 1501
1523 1532 1540 1536 1531 1522 1521 1519 1514 1515 1518 1515 1517 1524 1515 1513 1509 1505 1499 1492 1487 1484 1483 1482 1481 1480 1479 1480 1482 1483 1486 1489 1491 1493 1495 1496 1498 1499 1499 1499 1499 1499 1499 1499
1524 1534 1539 1544 1538 1530 1529 1522 1513 1512 1516 1517 1522 1523 1519 1515 1510 1504 1497 1490 1483 1481 1480 1480 1480 1479 1479 1479 1480 1482 1486 1490 1491 1492 1494 1495 1496 1497 1497 1498 1498 1498 1497 1497
1529 1535 1533 1533 1532 1533 1533 1528 1522 1519 1519 1523 1525 1525 1525 1521 1515 1507 1499 1491 1483 1479 1478 1479 1479 1479 1479 1479 1479 1481 1485 1488 1490 1491 1493 1493 1493 1494 1494 1494 1495 1495 1494 1494
1531 1534 1533 1535 1533 1533 1536 1535 1532 1529 1528 1528 1527 1528 1524 1519 1512 1505 1499 1494 1489 1485 1482 1480 1479 1480 1480 1480 1481 1482 1484 1487 1488 1490 1490 1490 1490 1491 1490 1490 1490 1490 1489 1490
1534 1535 1539 1543 1534 1533 1543 1545 1542 1538 1537 1535 1536 1535 1526 1519 1513 1508 1503 1499 1496 1492 1488 1486 1485 1484 1484 1485 1484 1484 1485 1486 1486 1487 1487 1486 1486 1487 1487 1486 1485 1485 1485 1486
1535 1536 1543 1546 1541 1549 1553 1546 1544 1542 1540 1540 1538 1534 1529 1524 1517 1511 1508 1505 1501 1498 1495 1493 1493 1492 1492 1491 1490 1490 1489 1488 1488 1487 1486 1485 1484 1483 1483 1482 1482 1482 1482 1482
1534 1537 1543 1549 1551 1551 1549 1545 1544 1544 1542 1541 1538 1533 1528 1523 1515 1512 1509 1508 1507 1505 1502 1500 1498 1497 1495 1494 1493 1492 1490 1489 1488 1487 1486 1484 1483 1482 1481 1481 1480 1480 1480 1479
1538 1540 1547 1550 1552 1557 1554 1546 1544 1545 1543 1541 1538 1535 1530 1525 1521 1518 1512 1510 1510 1508 1505 1502 1501 1499 1497 1496 1494 1492 1491 1490 1489 1488 1487 1485 1484 1482 1481 1480 1480 1479 1478 1477
1550 1551 1555 1557 1556 1554 1550 1547 1546 1550 1551 1543 1538 1535 1532 1529 1528 1521 1515 1512 1511 1510 1507 1505 1503 1502 1500 1499 1497 1495 1494 1493 1492 1491 1490 1488 1486 1484 1482 1481 1480 1479 1478 1477
1554 1557 1559 1560 1561 1562 1549 1548 1550 1550 1545 1541 1538 1534 1531 1528 1524 1519 1515 1513 1512 1511 1510 1508 1506 1505 1504 1503 1501 1499 1497 1496 1495 1493 1492 1490 1487 1485 1484 1482 1481 1480 1480 1478
1552 1553 1555 1557 1559 1552 1549 1549 1548 1546 1543 1540 1537 1533 1530 1527 1523 1519 1517 1514 1513 1513 1512 1510 1509 1508 1506 1505 1503 1501 1500 1498 1497 1495 1494 1491 1489 1487 1485 1484 1483 1482 1481 1479
1547 1546 1549 1551 1550 1549 1549 1548 1547 1545 1542 1539 1536 1533 1530 1527 1524 1521 1518 1516 1514 1513 1512 1511 1510 1509 1508 1507 1506 1504 1502 1500 1498 1497 1495 1493 1491 1489 1487 1486 1485 1484 1482 1481
1543 1544 1546 1548 1548 1548 1548 1547 1546 1544 1542 1539 1536 1533 1530 1527 1524 1521 1518 1516 1514 1513 1513 1512 1511 1510 1509 1508 1507 1505 1503 1501 1499 1498 1496 1495 1493 1491 1489 1488 1486 1485 1483 1481
1536 1539 1543 1546 1543 1545 1545 1545 1544 1542 1541 1539 1536 1533 1530 1526 1523 1520 1518 1516 1515 1513 1512 1512 1511 1510 1509 1508 1507 1506 1504 1501 1499 1498 1497 1495 1493 1491 1490 1488 1487 1485 1484 1481